Location: Newport
(44.6370°N, 124.0520°W)
Time: 22:49:53
(UTC-07:00)

Vanguard 1 Rocket - All Passes

Search period start: 17 October 2017 00:00
Search period end: 27 October 2017 00:00
Orbit: 655 x 4222 km, 34.3° (Epoch: 17 October)

Date Brightness Start Highest point End Pass type
(mag) Time Alt. Az. Time Alt. Az. Time Alt. Az.
17 Oct - 07:23:39 10° S 07:24:48 10° SSE 07:25:51 10° SSE daylight
17 Oct - 09:45:25 10° SW 09:49:28 21° S 09:52:52 10° ESE daylight
17 Oct - 12:10:05 10° WSW 12:13:32 22° S 12:17:16 10° SE daylight
17 Oct - 14:36:20 10° SW 14:37:56 11° SSW 14:39:42 10° S daylight
18 Oct - 08:34:27 10° SSW 08:38:51 19° SSE 08:42:18 10° ESE daylight
18 Oct - 10:59:15 10° WSW 11:03:06 24° S 11:06:42 10° SE daylight
18 Oct - 13:24:38 10° SW 13:27:13 15° SSW 13:30:10 10° SSE daylight
19 Oct - 07:23:34 10° SSW 07:28:01 16° SSE 07:31:28 10° SE daylight
19 Oct - 09:48:07 10° SW 09:52:39 24° S 09:56:19 10° ESE daylight
19 Oct - 12:13:32 10° WSW 12:16:42 19° SSW 12:20:01 10° SSE daylight
20 Oct - 06:13:23 10° S 06:16:54 12° SSE 06:19:49 10° SE visible
20 Oct - 08:36:40 10° SW 08:42:04 23° S 08:46:00 10° ESE daylight
20 Oct - 11:02:25 10° WSW 11:06:17 23° S 11:09:49 10° SE daylight
20 Oct - 13:29:38 10° SSW 13:30:21 10° SSW 13:31:07 10° S daylight
21 Oct - 07:25:03 10° SSW 07:31:15 21° SSE 07:35:35 10° ESE daylight
21 Oct - 09:50:59 10° WSW 09:55:50 26° S 09:59:39 10° SE daylight
21 Oct - 12:17:12 10° SW 12:19:49 15° SSW 12:22:30 10° SSE daylight
22 Oct - 06:13:34 10° SSW 06:20:08 18° SSE 06:24:49 10° ESE visible
22 Oct - 08:39:09 10° SW 08:45:17 28° S 08:49:32 10° ESE daylight
22 Oct - 11:05:40 10° WSW 11:09:25 21° SSW 11:12:47 10° SE daylight
23 Oct - 05:02:51 10° S 05:08:40 14° SSE 05:13:09 10° SE visible
23 Oct - 07:27:00 10° SW 07:34:28 27° S 07:39:20 10° ESE daylight
23 Oct - 09:53:56 10° WSW 09:59:00 27° S 10:02:53 10° SE daylight
23 Oct - 12:21:26 10° SW 12:22:53 11° SSW 12:24:20 10° S daylight
24 Oct - 03:55:56 10° SSE 03:56:52 10° SSE 03:57:45 10° SSE visible
24 Oct - 06:14:45 10° SSW 06:23:21 24° SSE 06:28:54 10° ESE visible
24 Oct - 08:41:47 10° WSW 08:48:28 31° S 08:52:56 10° ESE daylight
24 Oct - 11:09:02 10° WSW 11:12:30 18° SSW 11:15:36 10° SSE daylight
25 Oct - 05:02:49 10° SSW 05:11:52 20° SSE 05:17:59 10° ESE visible
25 Oct - 07:29:13 10° SW 07:37:40 32° S 07:42:53 10° ESE daylight
25 Oct - 09:56:58 10° WSW 10:02:08 26° SSW 10:06:03 10° SE daylight
26 Oct - 03:51:54 10° S 04:00:00 16° SSE 04:06:01 10° ESE visible
26 Oct - 06:16:24 10° SW 06:26:33 30° SSE 06:32:39 10° ESE visible
26 Oct - 08:44:32 10° WSW 08:51:38 33° S 08:56:15 10° ESE daylight
26 Oct - 11:12:37 10° WSW 11:15:31 15° SSW 11:18:08 10° S daylight
